Weather History for Mammoth, CA

Change the Weather History Date:

Saturday, January 11, 2014

  Actual Average Record
Temperature  
Mean Temperature 34 °F -  
Max Temperature 55 °F 35 °F 82 °F (2002)
Min Temperature 14 °F 20 °F -2 °F (2013)
Degree Days  
Heating Degree Days 30    
Moisture  
Dew Point 14 °F    
Average Humidity 46    
Maximum Humidity 86    
Minimum Humidity 14    
Precipitation  
Precipitation 0.00 in - - ()
Sea Level Pressure  
Sea Level Pressure 30.19 in    
Wind  
Wind Speed 12 mph (West)    
Max Wind Speed 40 mph    
Max Gust Speed 58 mph    
Visibility 10 miles    
Events      
Averages and records for this station are not official NWS values.
T = Trace of Precipitation, MM = Missing Value Source: NWS Daily Summary

Daily Weather History Graph

Daily Weather History Graph

Search for Another Location

Airport:

Trip Planner

Search our weather history database for the weather conditions in past years. The results will help you decide how hot, cold, wet, or windy it might be!

Date:

Astronomy

Jan. 11, 2014 Rise Set
Actual Time 7:10 AM PST 4:56 PM PST
Civil Twilight 6:41 AM PST 5:25 PM PST
Nautical Twilight 6:09 AM PST 5:58 PM PST
Astronomical Twilight 5:37 AM PST 6:29 PM PST
Moon 1:43 PM PST (1/11) 3:20 AM PST (1/11)
Length of Visible Light 10h 44m
Length of Day
9h 46m
Waxing Gibbous, 84% of the Moon is Illuminated
Jan 11
Waxing Gibbous
Jan 15
Full
Jan 23
Last Quarter
Jan 30
New
Feb 6
First Quarter

Hourly Weather History & Observations

Time (PST) Temp. Windchill Dew Point Humidity Pressure Visibility Wind Dir Wind Speed Gust Speed Precip Events Conditions
12:15 AM 24.8 °F - 17.6 °F 74% 30.31 in 10.0 mi Calm Calm - N/A   Clear
12:35 AM 24.8 °F - 17.6 °F 74% 30.31 in 10.0 mi Calm Calm - N/A   Clear
12:55 AM 24.8 °F - 17.6 °F 74% 30.30 in 10.0 mi Calm Calm - N/A   Clear
1:15 AM 23.0 °F - 17.6 °F 80% 30.30 in 10.0 mi Calm Calm - N/A   Clear
1:35 AM 23.0 °F - 17.6 °F 80% 30.30 in 10.0 mi Calm Calm - N/A   Clear
1:55 AM 23.0 °F - 15.8 °F 74% 30.30 in 10.0 mi Calm Calm - N/A   Clear
2:15 AM 21.2 °F - 15.8 °F 80% 30.30 in 10.0 mi Calm Calm - N/A   Clear
2:35 AM 17.6 °F - 14.0 °F 86% 30.30 in 10.0 mi Calm Calm - N/A   Clear
2:55 AM 17.6 °F - 12.2 °F 79% 30.29 in 10.0 mi Calm Calm - N/A   Clear
3:15 AM 19.4 °F - 12.2 °F 74% 30.28 in 10.0 mi Calm Calm - N/A   Clear
3:35 AM 19.4 °F 14.3 °F 14.0 °F 80% 30.27 in 10.0 mi NNW 3.5 mph - N/A   Clear
3:55 AM 19.4 °F 14.3 °F 14.0 °F 80% 30.26 in 10.0 mi North 3.5 mph - N/A   Clear
4:15 AM 21.2 °F - 15.8 °F 80% 30.26 in 10.0 mi Calm Calm - N/A   Clear
4:35 AM 17.6 °F - 14.0 °F 86% 30.26 in 10.0 mi Calm Calm - N/A   Clear
4:55 AM 17.6 °F - 14.0 °F 86% 30.26 in 10.0 mi Calm Calm - N/A   Clear
5:15 AM 14.0 °F 5.1 °F 10.4 °F 86% 30.26 in 10.0 mi North 5.8 mph - N/A   Clear
5:35 AM 17.6 °F 10.7 °F 14.0 °F 86% 30.27 in 10.0 mi NW 4.6 mph - N/A   Clear
5:55 AM 15.8 °F 8.6 °F 12.2 °F 86% 30.27 in 10.0 mi North 4.6 mph - N/A   Clear
6:15 AM 17.6 °F - 12.2 °F 79% 30.26 in 10.0 mi Calm Calm - N/A   Clear
6:35 AM 19.4 °F 12.8 °F 14.0 °F 80% 30.25 in 10.0 mi NNE 4.6 mph - N/A   Clear
6:55 AM 17.6 °F 12.3 °F 14.0 °F 86% 30.25 in 10.0 mi North 3.5 mph - N/A   Clear
7:15 AM 23.0 °F 18.4 °F 15.8 °F 74% 30.25 in 10.0 mi East 3.5 mph - N/A   Clear
7:35 AM 28.4 °F 23.3 °F 17.6 °F 64% 30.24 in 10.0 mi SSE 4.6 mph - N/A   Clear
7:55 AM 46.4 °F 38.5 °F 12.2 °F 25% 30.23 in 10.0 mi WSW 21.9 mph 28.8 mph N/A   Clear
8:15 AM 50.0 °F - 10.4 °F 20% 30.23 in 10.0 mi WSW 15.0 mph 31.1 mph N/A   Clear
8:35 AM 51.8 °F - 8.6 °F 18% 30.23 in 10.0 mi WSW 17.3 mph 32.2 mph N/A   Clear
8:55 AM 53.6 °F - 6.8 °F 15% 30.23 in 10.0 mi West 18.4 mph 33.4 mph N/A   Clear
9:15 AM 53.6 °F - 6.8 °F 15% 30.23 in 10.0 mi West 19.6 mph 38.0 mph N/A   Clear
9:35 AM 53.6 °F - 5.0 °F 14% 30.22 in 10.0 mi WSW 23.0 mph 33.4 mph N/A   Clear
9:55 AM 53.6 °F - 5.0 °F 14% 30.21 in 10.0 mi WSW 24.2 mph 43.7 mph N/A   Clear
10:15 AM 55.4 °F - 6.8 °F 14% 30.20 in 10.0 mi SW 29.9 mph 49.5 mph N/A   Clear
10:35 AM 55.4 °F - 6.8 °F 14% 30.20 in 10.0 mi WSW 28.8 mph 51.8 mph N/A   Clear
10:55 AM 55.4 °F - 6.8 °F 14% 30.18 in 10.0 mi WSW 34.5 mph 49.5 mph N/A   Clear
11:15 AM 55.4 °F - 6.8 °F 14% 30.18 in 10.0 mi WSW 38.0 mph 56.4 mph N/A   Clear
11:35 AM 53.6 °F - 6.8 °F 15% 30.17 in 10.0 mi WSW 40.3 mph 51.8 mph N/A   Clear
11:55 AM 53.6 °F - 6.8 °F 15% 30.17 in 10.0 mi WSW 34.5 mph 57.5 mph N/A   Clear
12:15 PM 51.8 °F - 5.0 °F 15% 30.16 in 10.0 mi WSW 35.7 mph 55.2 mph N/A   Clear
12:35 PM 50.0 °F - 5.0 °F 16% 30.16 in 10.0 mi WSW 32.2 mph 46.0 mph N/A   Clear
12:55 PM 50.0 °F - 3.2 °F 15% 30.16 in 10.0 mi WSW 27.6 mph 52.9 mph N/A   Scattered Clouds
1:15 PM 50.0 °F - 5.0 °F 16% 30.17 in 10.0 mi WSW 35.7 mph 49.5 mph N/A   Overcast
1:35 PM 48.2 °F - 10.4 °F 22% 30.17 in 10.0 mi West 24.2 mph 35.7 mph N/A   Overcast
1:55 PM 46.4 °F 36.9 °F 17.6 °F 32% 30.17 in 10.0 mi West 32.2 mph 48.3 mph N/A   Overcast
2:15 PM 44.6 °F 36.9 °F 21.2 °F 39% 30.17 in 10.0 mi West 18.4 mph 34.5 mph N/A   Overcast
2:35 PM 44.6 °F 36.6 °F 26.6 °F 49% 30.17 in 10.0 mi WSW 19.6 mph 32.2 mph N/A   Overcast
2:55 PM 42.8 °F 35.4 °F 28.4 °F 57% 30.16 in 10.0 mi SW 15.0 mph 43.7 mph N/A   Light Drizzle
3:15 PM 42.8 °F 33.5 °F 28.4 °F 57% 30.16 in 10.0 mi SW 23.0 mph 36.8 mph N/A   Light Drizzle
3:35 PM 44.6 °F 35.9 °F 26.6 °F 49% 30.15 in 10.0 mi WSW 23.0 mph 34.5 mph N/A   Mostly Cloudy
3:55 PM 46.4 °F 39.2 °F 23.0 °F 40% 30.12 in 10.0 mi WSW 18.4 mph 42.6 mph N/A   Scattered Clouds
4:15 PM 44.6 °F 34.6 °F 23.0 °F 43% 30.11 in 10.0 mi WSW 31.1 mph 40.3 mph N/A   Clear
4:35 PM 44.6 °F 34.2 °F 24.8 °F 46% 30.11 in 10.0 mi WSW 33.4 mph 41.4 mph N/A   Clear
4:55 PM 44.6 °F 34.6 °F 24.8 °F 46% 30.10 in 10.0 mi WSW 31.1 mph 44.9 mph N/A   Clear
5:15 PM 44.6 °F 34.9 °F 21.2 °F 39% 30.09 in 10.0 mi WSW 28.8 mph 47.2 mph N/A   Scattered Clouds
5:35 PM 44.6 °F 34.9 °F 19.4 °F 37% 30.10 in 10.0 mi WSW 28.8 mph 47.2 mph N/A   Clear
5:55 PM 42.8 °F 31.1 °F 19.4 °F 39% 30.12 in 10.0 mi WSW 38.0 mph 48.3 mph N/A   Clear
6:15 PM 42.8 °F 31.9 °F 17.6 °F 36% 30.13 in 10.0 mi WSW 32.2 mph 46.0 mph N/A   Clear
6:35 PM 42.8 °F 31.9 °F 15.8 °F 34% 30.14 in 10.0 mi WSW 32.2 mph 43.7 mph N/A   Clear
6:55 PM 41.0 °F 30.7 °F 17.6 °F 39% 30.14 in 10.0 mi WSW 25.3 mph 43.7 mph N/A   Clear
7:15 PM 41.0 °F 30.7 °F 15.8 °F 36% 30.15 in 10.0 mi West 25.3 mph 38.0 mph N/A   Clear
7:35 PM 41.0 °F 30.9 °F 12.2 °F 31% 30.14 in 10.0 mi WSW 24.2 mph 35.7 mph N/A   Clear
7:55 PM 41.0 °F 32.2 °F 12.2 °F 31% 30.15 in 10.0 mi WSW 18.4 mph 34.5 mph N/A   Clear
8:15 PM 41.0 °F 31.6 °F 14.0 °F 33% 30.15 in 10.0 mi WSW 20.7 mph 34.5 mph N/A   Clear
8:35 PM 41.0 °F 31.6 °F 14.0 °F 33% 30.15 in 10.0 mi West 20.7 mph 27.6 mph N/A   Clear
8:55 PM 39.2 °F 29.6 °F 15.8 °F 39% 30.15 in 10.0 mi West 19.6 mph 29.9 mph N/A   Clear
9:15 PM 41.0 °F 32.2 °F 14.0 °F 33% 30.15 in 10.0 mi West 18.4 mph 34.5 mph N/A   Clear
9:35 PM 41.0 °F 30.0 °F 14.0 °F 33% 30.15 in 10.0 mi West 28.8 mph 39.1 mph N/A   Clear
9:55 PM 39.2 °F 29.8 °F 14.0 °F 36% 30.13 in 10.0 mi WSW 18.4 mph 38.0 mph N/A   Clear
10:15 PM 42.8 °F 33.5 °F 6.8 °F 23% 30.07 in 10.0 mi SW 23.0 mph 41.4 mph N/A   Clear
10:35 PM 37.4 °F 26.9 °F 19.4 °F 48% 30.12 in 10.0 mi North 20.7 mph 26.5 mph N/A   Clear
10:55 PM 37.4 °F 27.8 °F 21.2 °F 52% 30.12 in 10.0 mi NNW 17.3 mph 23.0 mph N/A   Clear
11:15 PM 37.4 °F 26.9 °F 15.8 °F 41% 30.14 in 10.0 mi NNW 20.7 mph 34.5 mph N/A   Clear
11:35 PM 37.4 °F 27.2 °F 14.0 °F 38% 30.11 in 10.0 mi WNW 19.6 mph 29.9 mph N/A   Clear
11:55 PM 37.4 °F 24.4 °F 8.6 °F 30% 30.13 in 10.0 mi West 33.4 mph 46.0 mph N/A   Clear